CAPE
0 0 0 0 0 0 0 0 0 0 0 0 0 10 131 451 313 55 555 803 1022 1075 1233 1062 1474 1381 1264 936 1289 994 707 382 335 806 867 793 866 972 1051 944 935 498 840 574 469 543 612 470 334
0 0 0 0 0 0 0 0 0 0 0 0 5 0 79 164 772 786 802 939 1110 1268 1297 1075 1454 1480 1297 1397 1446 1160 912 503 490 987 620 1105 949 910 1094 1020 613 314 764 642 351 411 404 391 261
0 0 0 0 0 0 0 0 0 0 0 0 8 305 426 602 813 806 636 1160 1323 1414 1404 1140 1532 1442 1342 1518 1522 1313 1051 634 533 903 981 1144 1134 1055 808 498 400 694 665 504 360 346 368 325 169
0 0 0 0 0 0 0 0 0 0 0 0 0 0 448 545 842 782 891 1333 1360 1470 1456 1347 1548 1549 1536 1591 1524 1391 783 497 543 843 1181 1301 1286 1212 848 676 926 803 710 416 326 361 320 249 100
0 0 0 0 0 0 0 0 0 0 0 0 0 3 358 640 687 524 809 1487 1359 1466 1466 1633 1746 1536 1653 1675 1403 930 821 704 565 811 1148 1341 1331 1195 1166 735 1068 819 615 416 374 391 271 144 74
0 0 0 0 0 0 0 0 0 0 0 0 0 0 123 173 788 577 1180 1516 1588 1501 1532 1929 2089 1759 1486 1538 1321 1109 1401 984 775 812 984 1221 1323 1202 1168 1215 982 762 538 376 298 317 207 92 58
0 0 0 0 0 0 0 0 0 0 0 0 0 0 68 337 459 863 889 1454 1789 1748 1740 1919 1619 1297 1093 1217 1279 1468 1642 1237 1008 821 848 1060 1345 1216 1119 1037 1004 807 601 283 159 250 166 76 12
0 0 0 0 0 0 0 0 0 0 0 0 0 0 0 166 513 542 551 1073 1547 1959 1910 1492 1544 1380 1060 947 1106 1077 1072 943 1182 926 895 815 1110 1198 1032 1080 968 789 560 316 247 165 101 11 0
0 0 0 0 0 0 0 0 0 0 0 0 0 0 0 18 184 343 101 449 1025 1420 1642 1472 1434 1297 1164 1020 1070 1046 868 910 854 764 838 896 796 1066 991 999 1008 901 474 351 129 78 37 1 0
0 0 0 0 0 0 0 0 0 0 0 0 0 0 0 0 0 0 0 0 156 815 1057 1331 1348 1321 1253 1175 1031 1043 815 558 551 378 292 312 499 648 635 659 690 897 384 233 140 89 0 0 0
0 0 0 0 0 0 0 0 0 0 0 0 0 0 0 0 0 0 0 0 0 126 517 862 989 1122 1153 1041 864 768 746 413 252 145 131 169 269 277 296 278 272 163 211 52 108 10 0 0 0
0 0 0 0 0 0 0 0 0 0 0 0 0 0 0 0 0 0 0 0 4 0 0 363 768 964 1051 764 610 474 400 342 188 109 153 122 72 96 68 134 203 148 120 21 2 0 0 0 0
0 0 0 0 0 0 0 0 0 0 0 0 0 0 0 0 0 0 0 0 0 0 0 0 16 354 765 706 424 417 447 384 220 136 105 62 46 26 9 13 34 136 107 61 1 0 0 0 0
0 0 0 0 0 0 0 0 0 0 0 0 0 0 0 0 0 0 0 0 0 0 0 0 0 26 285 462 534 476 469 354 279 170 91 74 108 11 0 0 32 64 102 63 15 0 0 0 0
0 0 0 0 0 0 0 0 0 0 0 0 0 0 0 0 0 0 0 0 0 0 0 0 0 60 128 295 401 413 563 464 366 355 246 268 77 3 0 0 6 36 79 17 4 0 0 0 0
0 0 0 0 0 0 0 0 0 0 0 0 0 0 0 0 0 0 0 0 0 0 0 0 0 0 154 147 170 373 520 529 594 536 423 353 164 40 4 2 1 50 60 22 0 0 0 0 0
0 0 0 0 0 0 0 0 0 0 0 0 0 0 0 0 0 0 0 0 0 0 0 0 0 0 0 181 196 235 423 472 572 697 555 393 206 42 18 18 16 63 38 33 1 0 0 0 0
0 0 0 0 0 0 0 0 0 0 0 0 0 0 0 0 0 0 0 0 0 0 0 0 0 0 0 0 44 22 111 372 551 634 493 343 121 16 7 1 44 49 7 9 1 0 0 0 0
0 0 0 0 0 0 0 0 0 0 0 0 0 0 0 0 0 0 0 0 0 0 0 0 0 0 0 0 0 0 10 215 486 621 503 282 125 45 0 20 40 34 32 29 19 0 0 1 2
0 0 0 0 0 0 0 0 0 0 0 0 0 0 0 0 0 0 0 0 0 0 0 0 0 0 0 0 0 1 28 181 423 595 543 385 42 17 3 0 55 23 1 5 16 0 0 0 6
0 0 0 0 0 0 0 0 0 0 0 0 0 0 0 0 0 0 0 0 0 0 0 0 0 0 0 0 0 0 12 117 187 293 433 228 23 70 14 3 123 27 6 3 1 0 0 0 0
0 0 0 0 0 0 0 0 0 0 0 0 0 0 0 0 0 0 0 0 0 0 0 0 0 0 0 0 0 0 0 10 175 163 278 350 292 120 67 38 144 51 10 2 0 0 0 0 0
0 0 0 0 0 0 0 0 0 0 0 0 0 0 0 0 0 0 0 0 0 0 0 0 0 0 0 0 0 0 0 1 102 136 194 267 105 292 189 183 92 67 3 0 0 0 0 0 0
0 0 0 0 0 0 0 0 0 0 0 0 0 0 0 0 0 0 0 0 0 0 0 0 0 0 0 0 0 0 0 30 10 20 122 115 50 105 295 345 169 81 8 0 1 0 0 0 0
0 0 0 0 0 0 0 0 0 0 0 0 0 0 0 0 0 0 0 0 0 0 0 0 4 4 2 0 0 0 0 0 4 2 21 21 39 0 0 62 181 72 1 0 0 0 0 0 0
0 0 0 0 0 0 0 0 0 0 0 0 0 0 0 0 0 0 0 0 0 0 0 0 2 7 6 0 0 0 0 0 0 0 0 0 0 0 0 0 41 2 0 0 0 0 0 0 0
0 0 0 0 0 0 0 0 0 0 0 0 0 0 0 0 0 0 0 0 0 0 0 0 0 0 1 1 1 1 0 0 0 0 1 0 0 0 0 0 0 0 0 0 0 0 0 0 3
0 0 0 0 0 0 0 0 0 0 0 0 0 0 0 0 0 0 0 0 0 0 0 1 0 0 1 1 1 0 0 0 0 0 0 0 0 0 0 0 0 1 0 0 0 0 0 0 0
0 0 0 0 0 0 0 0 0 0 0 0 0 0 0 0 0 0 0 0 1 1 0 0 0 0 0 1 0 0 1 0 1 1 1 1 1 1 0 0 1 1 0 0 0 0 0 0 0
0 0 0 0 0 0 0 0 0 0 0 0 0 0 0 0 0 0 0 1 1 0 0 0 0 0 0 1 1 0 1 1 1 1 1 1 1 1 1 0 0 0 0 0 0 0 0 0 0
CIN
-0 -0 -0 -0 -0 -0 -0 -0 -0 -0 -0 -0 -0 -16 -109 -103 -65 -93 -171 -143 -119 -102 -68 -70 -7 -3 -0 -20 -0 -2 -9 -66 -71 -0 -0 -0 -0 -0 -0 -5 -0 -8 -0 -4 -1 -4 -3 -28 -51
-0 -0 -0 -0 -0 -0 -0 -0 -0 -0 -0 -0 -91 -0 -107 -95 -88 -92 -109 -114 -105 -95 -78 -94 -21 -7 -5 -0 -0 -0 -7 -62 -57 -0 -9 -0 -0 -4 -0 -0 -3 -4 -0 -5 -16 -5 -15 -29 -75
-0 -0 -0 -0 -0 -0 -0 -0 -0 -0 -0 -0 -4 -93 -89 -85 -64 -78 -123 -100 -114 -91 -86 -100 -25 -16 -9 -1 -2 -0 -3 -56 -58 -1 -0 -0 -0 -0 -2 -6 -8 -0 -0 -7 -22 -26 -13 -20 -85
-0 -0 -0 -0 -0 -0 -0 -0 -0 -0 -0 -0 -0 -1 -92 -100 -67 -106 -118 -94 -100 -85 -76 -70 -32 -9 -1 -2 -0 -0 -36 -75 -56 -3 -0 -0 -0 -0 -2 -5 -1 -0 -0 -0 -19 -28 -31 -51 -128
-0 -0 -0 -0 -0 -0 -0 -0 -0 -0 -0 -0 -0 -60 -74 -58 -100 -125 -107 -84 -74 -77 -70 -39 -19 -22 -3 -0 -3 -29 -27 -35 -40 -5 -0 -0 -0 -0 -0 -2 -0 -0 -0 -0 -1 -14 -53 -113 -176
-0 -0 -0 -0 -0 -0 -0 -0 -0 -0 -0 -0 -0 -0 -192 -179 -61 -107 -91 -73 -65 -64 -58 -20 -2 -8 -16 -8 -11 -15 -0 -4 -14 -2 -0 -0 -0 -0 -0 -0 -0 -0 -0 -0 -1 -10 -62 -156 -0
-0 -0 -0 -0 -0 -0 -0 -0 -0 -0 -0 -0 -0 -0 -221 -100 -95 -59 -80 -72 -42 -40 -37 -19 -8 -17 -32 -10 -9 -1 -0 -0 -0 -3 -0 -1 -0 -0 -0 -0 -0 -0 -0 -1 -8 -5 -67 -120 -12
-0 -0 -0 -0 -0 -0 -0 -0 -0 -0 -0 -0 -0 -0 -0 -135 -91 -90 -103 -53 -47 -29 -21 -19 -13 -12 -26 -45 -13 -10 -8 -8 -0 -0 -0 -1 -0 -1 -0 -0 -0 -0 -0 -0 -0 -15 -0 -4 -0
-0 -0 -0 -0 -0 -0 -0 -0 -0 -0 -0 -0 -0 -0 -0 -280 -144 -123 -234 -129 -63 -49 -27 -29 -26 -27 -28 -36 -24 -12 -14 -13 -7 -3 -0 -5 -4 -0 -0 -0 -0 -0 -0 -0 -3 -4 -3 -7 -0
-0 -0 -0 -0 -0 -0 -0 -0 -0 -0 -0 -0 -0 -0 -0 -0 -0 -0 -0 -0 -246 -51 -38 -30 -28 -33 -31 -28 -23 -16 -20 -26 -20 -36 -47 -45 -22 -9 -8 -3 -3 -0 -1 -0 -3 -1 -0 -0 -0
-0 -0 -0 -0 -0 -0 -0 -0 -0 -0 -0 -0 -0 -0 -0 -0 -0 -0 -0 -0 -0 -218 -81 -47 -44 -39 -32 -29 -35 -36 -35 -42 -51 -77 -79 -65 -49 -48 -37 -42 -26 -22 -1 -11 -2 -1 -0 -0 -0
-0 -0 -0 -0 -0 -0 -0 -0 -0 -0 -0 -0 -0 -0 -0 -0 -0 -0 -0 -0 -267 -0 -0 -76 -51 -37 -33 -40 -48 -55 -55 -59 -73 -92 -72 -85 -102 -87 -82 -48 -36 -69 -26 -24 -23 -0 -0 -0 -0
-0 -0 -0 -0 -0 -0 -0 -0 -0 -0 -0 -0 -0 -0 -0 -0 -0 -0 -0 -0 -0 -0 -0 -0 -42 -63 -44 -45 -62 -61 -53 -36 -57 -79 -108 -151 -155 -153 -120 -88 -93 -67 -62 -23 -13 -0 -0 -0 -0
-0 -0 -0 -0 -0 -0 -0 -0 -0 -0 -0 -0 -0 -0 -0 -0 -0 -0 -0 -0 -0 -0 -0 -0 -0 -57 -71 -67 -59 -54 -49 -39 -45 -66 -133 -138 -128 -141 -0 -0 -52 -82 -50 -96 -37 -0 -0 -0 -0
-0 -0 -0 -0 -0 -0 -0 -0 -0 -0 -0 -0 -0 -0 -0 -0 -0 -0 -0 -0 -0 -0 -0 -0 -0 -88 -80 -75 -82 -92 -66 -59 -37 -55 -78 -91 -154 -197 -0 -0 -44 -57 -90 -141 -32 -0 -0 -0 -0
-0 -0 -0 -0 -0 -0 -0 -0 -0 -0 -0 -0 -0 -0 -0 -0 -0 -0 -0 -0 -0 -0 -0 -0 -0 -0 -62 -59 -70 -80 -78 -79 -48 -30 -70 -71 -163 -183 -218 -46 -35 -57 -77 -126 -10 -0 -0 -0 -0
-0 -0 -0 -0 -0 -0 -0 -0 -0 -0 -0 -0 -0 -0 -0 -0 -0 -0 -0 -0 -0 -0 -0 -0 -0 -0 -0 -59 -54 -62 -78 -98 -80 -54 -57 -84 -151 -199 -187 -164 -162 -61 -47 -94 -63 -0 -0 -0 -0
-0 -0 -0 -0 -0 -0 -0 -0 -0 -0 -0 -0 -0 -0 -0 -0 -0 -0 -0 -0 -0 -0 -0 -0 -0 -0 -0 -2 -78 -49 -63 -103 -103 -68 -77 -98 -138 -206 -121 -80 -109 -96 -131 -127 -31 -0 -0 -0 -0
-0 -0 -0 -0 -0 -0 -0 -0 -0 -0 -0 -0 -0 -0 -0 -0 -0 -0 -0 -0 -0 -0 -0 -0 -0 -0 -0 -0 -0 -0 -49 -68 -117 -96 -105 -93 -129 -65 -0 -117 -114 -112 -117 -91 -91 -0 -0 -67 -117
-0 -0 -0 -0 -0 -0 -0 -0 -0 -0 -0 -0 -0 -0 -0 -0 -0 -0 -0 -0 -0 -0 -0 -0 -0 -0 -0 -0 -0 -15 -32 -37 -55 -73 -85 -91 -126 -56 -92 -0 -88 -123 -153 -95 -86 -0 -0 -0 -120
-0 -0 -0 -0 -0 -0 -0 -0 -0 -0 -0 -0 -0 -0 -0 -0 -0 -0 -0 -0 -0 -0 -0 -0 -0 -0 -0 -0 -0 -0 -53 -55 -33 -32 -53 -111 -135 -142 -127 -157 -50 -113 -161 -119 -42 -0 -0 -0 -0
-0 -0 -0 -0 -0 -0 -0 -0 -0 -0 -0 -0 -0 -0 -0 -0 -0 -0 -0 -0 -0 -0 -0 -0 -0 -0 -0 -0 -0 -0 -0 -105 -79 -73 -65 -71 -63 -102 -118 -120 -40 -81 -131 -34 -0 -0 -0 -0 -0
-0 -0 -0 -0 -0 -0 -0 -0 -0 -0 -0 -0 -0 -0 -0 -0 -0 -0 -0 -0 -0 -0 -0 -0 -0 -0 -0 -0 -0 -0 -0 -14 -121 -87 -81 -78 -83 -27 -49 -41 -58 -68 -152 -0 -0 -0 -0 -0 -0
-0 -0 -0 -0 -0 -0 -0 -0 -0 -0 -0 -0 -0 -0 -0 -0 -0 -0 -0 -0 -0 -0 -0 -0 -0 -0 -0 -0 -0 -0 -0 -74 -82 -101 -86 -116 -121 -78 -10 -0 -22 -24 -148 -0 -0 -0 -0 -0 -44
-0 -0 -0 -0 -0 -0 -0 -0 -0 -0 -0 -0 -0 -0 -0 -0 -0 -0 -0 -0 -0 -0 -0 -14 -29 -21 -34 -0 -0 -0 -0 -0 -121 -52 -126 -120 -114 -0 -0 -52 -5 -18 -39 -0 -0 -0 -0 -0 -0
-0 -0 -0 -0 -0 -0 -0 -0 -0 -0 -0 -0 -0 -0 -0 -0 -0 -0 -0 -0 -0 -0 -0 -3 -33 -27 -25 -0 -0 -0 -0 -0 -0 -0 -0 -5 -1 -0 -0 -1 -45 -9 -0 -0 -0 -0 -0 -0 -0
-0 -0 -0 -0 -0 -0 -0 -0 -0 -0 -0 -0 -0 -0 -0 -0 -0 -0 -0 -0 -0 -0 -0 -1 -0 -0 -0 -0 -0 -0 -0 -0 -0 -0 -0 -0 -0 -0 -0 -0 -0 -0 -0 -0 -0 -0 -0 -8 -81
-0 -0 -0 -0 -0 -0 -0 -0 -0 -0 -0 -0 -0 -0 -0 -0 -0 -0 -0 -0 -0 -0 -0 -17 -0 -0 -0 -0 -0 -0 -0 -0 -0 -0 -0 -0 -0 -0 -0 -0 -1 -0 -0 -0 -0 -0 -0 -0 -0
-0 -0 -0 -0 -0 -0 -0 -0 -0 -0 -0 -0 -0 -0 -0 -0 -0 -0 -0 -0 -10 -10 -0 -18 -0 -0 -0 -0 -0 -0 -0 -0 -0 -0 -0 -0 -0 -0 -0 -0 -0 -0 -0 -0 -0 -0 -0 -0 -0
-0 -0 -0 -0 -0 -0 -0 -0 -0 -0 -0 -0 -0 -0 -0 -0 -0 -0 -0 -8 -8 -13 -0 -0 -0 -0 -0 -0 -0 -0 -0 -0 -0 -0 -0 -0 -0 -0 -0 -0 -0 -0 -0 -0 -0 -0 -0 -0 -0
Wind_Speed
22 20 16 16 17 17 18 14 14 13 14 15 15 13 11 13 13 11 13 10 8 10 11 12 13 13 12 11 11 12 12 12 12 12 12 11 11 11 12 11 12 12 13 13 14 16 17 17 18
18 15 15 15 18 19 18 15 10 12 12 11 12 14 15 13 13 11 12 8 8 10 10 11 12 12 11 11 10 11 11 11 11 11 11 11 10 10 10 10 10 11 12 13 13 14 15 16 17
15 14 15 16 17 18 16 11 10 12 14 13 14 14 14 13 13 15 17 8 7 8 9 9 10 9 9 9 8 9 9 10 10 11 10 10 10 10 9 9 9 10 10 11 12 12 14 15 16
13 14 16 20 20 17 14 9 9 11 14 15 12 14 15 16 17 18 12 7 6 6 7 8 8 7 6 6 6 7 8 9 9 9 10 10 9 9 8 8 8 9 9 10 11 11 12 13 14
14 16 18 19 20 18 16 12 9 13 15 16 16 15 15 15 14 16 7 6 5 5 6 7 7 6 6 6 6 6 7 7 8 8 9 9 9 8 7 7 7 8 8 8 9 9 10 11 13
17 19 20 22 20 18 20 14 12 13 17 16 17 14 16 17 14 14 8 6 6 5 4 3 4 5 5 5 4 4 5 5 6 7 6 8 8 7 7 6 6 7 6 6 7 8 9 10 12
15 15 19 19 21 22 17 11 14 17 18 18 13 16 17 16 14 12 12 8 6 5 4 3 2 2 3 3 2 2 2 3 4 5 5 6 6 6 6 6 6 6 5 5 6 7 8 10 11
12 15 17 17 18 20 17 15 18 18 20 17 16 18 19 13 9 11 13 12 7 4 4 4 3 2 1 1 0 1 2 2 4 4 5 4 5 4 5 5 5 5 4 3 4 5 6 9 10
12 10 14 17 17 18 19 20 20 19 18 20 20 15 19 7 8 11 13 13 12 9 6 5 3 3 2 3 4 5 6 6 6 7 8 8 7 7 6 5 4 5 4 3 2 5 6 8 9
9 10 8 8 19 20 20 21 22 22 21 21 21 20 13 9 10 12 13 14 14 13 10 6 5 4 4 6 7 8 9 9 9 9 9 9 8 8 8 6 5 5 4 2 1 3 4 6 8
10 9 12 15 15 21 22 23 20 23 25 23 20 14 10 11 11 11 13 12 12 12 12 10 9 9 8 9 9 10 11 11 10 10 9 9 9 9 9 8 8 8 6 5 3 2 3 4 6
13 12 14 19 22 24 27 23 26 25 26 22 20 6 8 7 7 7 10 12 12 11 10 10 10 9 9 11 12 14 14 13 12 12 10 11 11 10 11 11 10 6 8 8 6 6 3 3 5
13 18 20 23 28 28 29 29 29 28 26 20 16 9 7 7 5 7 11 12 11 11 10 8 9 9 10 11 13 14 15 15 14 13 12 12 12 12 11 15 15 12 10 9 9 8 6 5 4
19 19 25 25 25 24 26 31 26 28 23 19 17 10 8 6 6 10 12 12 13 11 10 11 9 10 10 11 13 14 14 15 14 15 15 14 13 14 13 15 23 14 15 10 12 10 7 5 3
22 27 31 28 23 20 20 31 30 32 21 21 17 11 7 8 9 10 13 14 12 12 13 14 13 12 10 10 12 14 14 15 16 16 16 15 14 13 19 17 22 19 12 12 12 13 8 6 6
22 22 19 19 17 19 14 30 27 24 22 24 20 13 9 8 9 13 15 14 16 15 15 16 17 13 12 11 13 15 15 15 15 16 16 18 16 16 19 12 11 18 11 12 14 13 11 8 7
21 16 17 24 18 19 15 25 26 24 19 27 22 16 13 11 11 13 14 14 15 16 18 18 17 14 11 11 14 15 16 16 16 18 20 20 18 16 15 14 9 9 13 15 17 19 13 12 9
16 19 22 20 21 23 29 33 33 30 25 23 21 23 17 9 10 11 12 16 17 18 19 18 17 14 15 16 16 15 15 15 16 19 23 22 22 19 16 17 13 8 8 10 15 20 17 10 11
21 24 30 31 32 34 38 40 35 36 31 27 25 22 15 11 12 11 13 16 18 19 20 18 19 14 13 14 12 11 10 12 15 15 20 18 17 20 25 14 13 8 9 10 7 20 17 15 14
26 31 35 35 30 26 36 43 42 31 31 23 16 16 16 11 10 10 13 15 17 18 20 20 14 11 7 7 8 7 5 5 6 14 16 15 12 18 18 14 12 12 10 7 8 16 14 18 17
26 27 29 31 35 31 36 42 33 28 27 25 24 20 11 8 6 8 10 12 16 18 19 17 10 7 6 4 5 4 5 2 22 4 9 19 14 7 14 14 10 10 10 10 11 10 22 16 16
28 27 28 31 30 31 26 38 32 31 28 24 21 12 7 3 4 5 8 12 15 17 17 16 12 7 6 5 3 4 10 12 16 27 14 11 12 10 10 10 11 10 12 7 9 12 25 19 14
30 27 26 28 27 30 27 32 28 28 29 23 16 10 3 2 0 3 8 11 15 15 16 17 16 13 11 8 7 8 14 7 14 20 15 15 18 18 12 6 12 14 13 26 20 24 34 31 18
27 25 25 26 26 32 28 18 30 22 19 20 12 5 3 5 2 5 9 12 13 15 16 17 17 15 14 10 9 7 6 9 15 19 22 22 19 19 22 25 21 11 27 38 31 21 28 14 13
22 21 28 31 28 31 22 21 11 27 26 22 8 0 3 4 2 5 8 10 11 15 16 14 16 15 14 12 10 8 8 11 15 17 22 21 23 25 28 32 34 37 12 20 25 16 18 21 11
26 23 26 34 32 27 21 24 19 18 24 24 8 2 1 1 3 5 7 9 11 13 15 14 15 15 14 12 10 9 9 11 15 18 21 26 26 29 28 30 27 29 29 19 19 24 17 34 16
27 30 26 32 30 37 31 35 39 31 27 17 7 1 3 2 3 4 7 9 11 12 13 13 13 14 14 13 11 11 11 12 14 19 22 25 28 29 29 27 19 17 18 17 15 20 18 12 13
28 22 29 29 39 42 34 33 32 29 21 12 6 1 2 2 2 4 6 8 10 12 13 13 13 13 13 12 11 11 13 14 16 21 26 29 26 24 23 21 18 11 10 13 18 16 14 12 9
24 30 30 28 31 36 35 31 22 21 18 7 4 1 2 3 1 3 5 7 9 11 12 13 13 13 13 13 12 12 14 15 17 19 22 22 16 15 14 10 8 6 4 15 12 15 12 12 8
34 33 30 36 36 34 35 33 20 25 24 15 9 4 2 1 1 2 4 6 7 9 11 12 13 13 13 13 13 13 13 13 15 18 18 13 7 10 11 2 1 2 4 5 8 11 6 8 6
Wind_Direction
297 304 322 320 302 301 290 300 304 299 305 315 321 336 345 334 331 341 304 74 16 86 96 106 105 103 95 82 63 61 55 46 43 42 34 35 29 25 32 38 39 44 47 42 33 39 39 36 34
310 322 318 311 297 291 288 300 304 304 311 337 344 328 319 318 314 314 327 71 39 88 97 108 110 107 99 91 79 70 63 56 52 49 40 36 34 35 35 39 42 40 48 40 29 35 36 38 37
317 331 305 304 299 287 292 301 308 306 312 315 321 320 314 316 306 292 296 14 51 84 92 102 108 106 104 91 78 72 67 63 62 46 47 38 37 28 41 44 34 34 36 27 21 33 37 37 37
319 312 313 292 290 291 302 307 320 315 311 313 328 321 304 300 293 288 321 8 55 75 84 103 106 105 93 72 55 54 71 72 65 55 44 46 35 31 31 43 41 29 22 18 21 34 32 35 37
313 306 298 297 290 295 301 296 317 305 307 308 304 306 304 304 307 304 345 10 57 69 90 96 106 109 103 98 93 81 85 70 69 62 50 51 44 34 28 28 24 15 17 17 26 32 33 34 35
296 294 293 289 288 293 292 297 307 311 300 303 304 309 295 291 305 312 345 9 14 64 74 69 98 108 110 105 99 91 75 67 58 51 52 45 47 43 28 13 10 9 20 19 31 36 35 36 36
305 301 297 296 287 289 297 310 301 298 298 296 311 300 294 294 303 318 319 341 1 5 11 5 30 76 109 99 92 102 78 74 50 40 29 27 40 37 31 10 356 359 12 23 33 40 42 46 42
326 312 306 303 292 292 298 297 293 295 292 296 303 301 293 302 322 321 326 331 349 10 12 360 354 16 13 14 290 295 327 328 347 360 4 359 9 15 14 2 349 347 357 21 44 56 60 54 41
335 341 315 303 297 295 288 282 287 296 294 294 298 306 299 321 326 319 321 326 330 334 335 336 334 329 306 304 295 297 305 299 309 320 326 326 329 336 338 333 329 320 318 337 28 80 70 49 35
344 339 342 350 298 290 289 287 288 284 289 295 295 297 308 315 313 315 313 316 323 324 322 326 322 311 301 302 299 299 299 300 298 301 306 307 307 312 313 312 310 306 289 288 96 100 64 29 15
343 334 326 312 318 296 291 287 296 287 284 291 298 307 314 310 311 314 317 323 328 329 324 327 326 318 307 300 298 295 296 297 290 287 290 292 294 295 296 296 296 297 282 256 250 273 314 9 12
329 325 315 306 301 291 281 293 289 286 286 295 297 316 312 315 317 320 321 319 323 329 330 329 327 325 317 310 302 298 293 291 286 280 278 281 284 284 285 283 280 273 277 249 243 257 264 325 344
318 316 307 299 289 289 281 278 278 283 285 297 307 311 307 311 312 320 324 327 327 323 327 327 328 323 318 314 312 306 298 291 283 276 274 270 274 276 281 285 283 263 264 252 247 245 246 278 317
317 313 301 300 294 293 286 277 286 284 293 296 299 298 295 295 301 314 315 320 321 327 329 324 318 316 315 312 312 311 306 297 283 274 267 262 263 273 282 280 270 269 258 266 250 243 243 253 280
310 301 291 294 297 296 299 281 280 271 295 297 302 304 285 285 303 309 315 314 322 326 328 326 317 313 306 305 306 307 303 299 287 274 261 257 251 252 261 272 268 269 263 266 249 248 238 230 255
309 312 318 315 317 304 298 282 281 289 294 294 297 302 288 283 295 308 313 319 324 326 325 325 325 314 302 298 302 305 302 298 288 276 263 255 246 257 265 263 269 268 273 262 259 243 229 221 230
305 312 313 300 312 307 299 293 286 292 295 293 296 303 303 291 300 306 314 323 326 326 323 324 323 319 300 292 298 302 301 297 287 274 264 255 251 247 248 258 265 271 268 260 255 252 232 218 229
311 306 302 301 305 307 292 284 285 289 294 297 297 301 308 291 291 306 316 319 322 325 328 328 328 322 316 306 303 302 301 298 292 276 267 258 255 247 248 255 262 276 272 269 264 247 232 216 211
300 297 292 288 288 292 280 275 286 285 290 292 294 298 301 291 299 307 315 320 326 330 331 333 332 326 317 312 304 301 294 297 294 281 267 258 256 257 245 251 263 265 266 279 249 237 235 227 215
289 288 284 284 292 304 290 266 280 294 292 292 285 284 287 288 289 305 315 325 334 338 340 341 342 343 340 331 327 315 296 271 281 279 265 256 264 252 246 256 259 261 271 266 261 229 231 220 209
285 288 290 288 290 299 295 273 294 300 297 298 297 294 280 254 258 301 322 336 341 344 349 354 6 10 2 3 347 347 345 3 193 243 262 258 269 231 245 254 254 257 260 253 242 201 224 217 217
282 286 288 289 294 295 306 283 297 300 300 300 301 306 292 235 284 318 337 344 348 353 6 15 26 32 24 18 33 137 156 158 185 235 269 275 273 267 254 235 249 250 254 215 211 219 226 223 200
279 288 288 289 294 296 299 292 294 310 302 303 307 309 303 158 165 349 350 355 358 9 13 23 18 30 28 39 67 110 143 341 290 267 276 277 274 275 276 245 256 257 249 228 236 231 222 225 227
284 279 288 292 293 288 293 296 291 308 320 321 328 333 114 124 42 5 0 2 12 18 21 30 16 33 29 40 43 45 350 325 292 273 266 272 282 282 271 261 259 239 231 225 236 231 236 204 223
280 279 278 280 281 283 296 294 284 294 303 313 335 18 132 116 49 24 11 19 25 20 28 43 12 31 47 42 46 40 350 317 295 294 286 290 281 272 260 249 245 224 188 246 240 204 228 237 202
271 267 270 274 277 285 296 290 301 319 307 310 317 292 204 111 50 35 27 32 26 25 37 51 10 19 51 51 33 19 1 324 309 301 289 275 278 267 264 255 257 249 245 243 234 232 227 229 236
264 263 272 276 283 280 284 281 277 296 300 311 328 287 171 155 83 44 30 31 24 30 48 61 25 11 22 35 27 2 345 338 324 315 306 293 279 267 264 262 266 259 252 236 218 228 225 200 235
262 268 268 270 269 268 279 281 279 290 308 327 332 103 166 149 60 43 30 25 25 34 51 65 45 9 15 23 31 21 339 330 326 321 307 290 283 272 264 261 263 259 239 232 227 223 232 237 238
269 264 267 272 268 268 275 280 291 294 305 335 334 338 161 154 115 46 28 28 31 39 55 71 73 41 21 16 17 9 338 327 331 341 342 301 284 267 260 262 264 238 224 233 230 219 240 238 241
267 265 261 260 263 267 271 270 290 290 296 314 318 313 285 200 56 16 35 36 38 46 60 72 83 69 54 46 32 17 8 15 7 350 343 343 328 261 258 271 65 113 183 184 198 230 232 235 220